Find Starlink 32610

NORAD ID: 61971 Int'l Des: 2024-210 Owner: SPXS Country: US Constellation: starlink operational
LEOCIRCULAR

Live Position

Loading 3D Globe...

About Starlink 32610

Description loading...

Upcoming Passes

Passes for default location (London). Set your location on the main map for personalized predictions.

Altitude History

Loading altitude history...

Two-Line Element Set

1 61971U 24210N 26125.61700830 .00031320 00000-0 11414-2 0 9996
2 61971 42.9977 218.5485 0001502 279.2566 80.8115 15.27620210 83620
Epoch: May 5, 2026 • Age: 19 hours

Current Status

Altitude 482.3 km
Velocity 7.63 km/s
Sub-Earth Point 0.30°N, 154.44°W
Launch Date Nov 14, 2024
Age 1.4 years
Type internet

Technical Details

Classification Payload
Mass 730.00 kg
Dry Mass 700.00 kg
Total Mass 730.00 kg
Length 0.30 m
Diameter 4.10 m
Span 29.00 m
Shape Box + pan
Manufacturer SPXS
Bus Type Starlink V2M
Phase Status In Orbit
Owner/State SPXS/US

Most Searched